Temperature
14 15 16 16 20 21 21 20 20 19 19 18 18 20 21 20 21 19 14 14 15 15 15 15 16 16 16 16 16 16 16 16 16 16 16 16 16 16 16 16 16 16 16 16 16 16 16 16 16
14 15 15 17 20 21 20 20 19 19 18 16 17 18 18 17 15 14 13 14 14 15 15 15 15 16 16 16 16 16 16 16 16 16 16 16 16 16 16 16 16 16 16 16 16 16 16 16 16
14 15 16 19 20 21 21 19 19 17 16 16 17 16 17 15 14 13 13 14 14 14 15 15 15 15 15 16 16 16 16 16 16 16 16 16 16 16 16 16 16 16 16 16 16 16 16 16 15
14 15 16 19 19 19 19 18 17 17 16 16 16 16 14 12 12 13 14 14 14 14 14 15 15 15 15 15 15 15 15 16 16 16 16 16 16 16 16 16 16 16 16 16 16 16 15 15 15
14 16 18 18 18 17 17 16 16 18 17 16 16 16 14 12 12 13 14 14 14 14 14 14 15 15 15 15 15 15 15 15 15 16 16 16 16 16 16 16 16 15 15 15 15 15 15 15 15
14 16 18 18 17 16 17 15 16 17 16 15 16 16 13 12 12 13 13 13 13 14 14 14 14 14 14 14 15 15 15 15 15 15 15 15 15 15 15 15 15 15 15 15 15 15 15 15 15
15 16 17 18 17 16 16 15 16 17 16 15 15 15 13 12 12 13 13 13 13 13 13 14 14 14 14 14 14 14 14 15 15 15 15 15 15 15 15 15 15 15 15 15 15 15 15 15 15
13 16 16 16 16 16 15 14 14 16 15 13 14 15 14 12 12 13 13 13 13 13 13 13 14 14 14 14 14 14 14 14 14 14 14 14 14 15 15 15 15 15 15 15 15 15 15 15 15
12 16 16 16 16 15 14 14 13 12 13 12 12 12 12 12 12 12 12 13 13 13 13 13 13 14 14 14 14 14 14 14 14 14 14 14 14 14 14 14 14 14 14 15 15 15 15 15 15
13 15 14 14 15 15 14 14 14 14 14 13 12 11 11 11 12 12 12 12 13 13 13 13 13 13 13 13 13 13 13 13 13 13 13 13 13 13 14 14 14 14 14 14 14 14 14 14 14
12 13 12 12 12 13 13 13 13 15 15 14 13 11 11 11 11 12 12 12 12 12 13 13 13 13 13 13 13 13 13 13 13 13 13 13 13 13 13 13 13 13 13 13 14 14 14 14 14
12 11 11 11 10 11 12 12 12 13 13 11 11 11 11 11 11 11 12 12 12 12 12 12 12 12 12 12 12 12 12 12 12 12 12 12 13 13 13 13 13 13 13 13 13 13 13 13 13
12 11 10 10 10 10 11 11 11 11 10 10 10 11 11 11 11 11 11 11 11 12 12 12 12 12 12 12 12 12 12 12 12 12 12 12 12 12 12 12 12 12 12 12 12 12 12 13 13
11 11 10 10 10 10 11 11 11 11 10 10 10 10 10 10 10 11 11 11 11 11 11 11 11 11 11 11 11 11 11 11 11 11 11 11 11 12 12 12 12 12 12 12 12 12 12 12 12
11 12 12 11 11 10 11 12 12 10 10 10 10 10 10 10 10 10 10 11 11 11 11 11 11 11 11 11 11 11 11 11 11 11 11 11 11 11 11 11 11 11 11 11 11 11 11 12 12
12 13 13 11 10 10 12 13 12 9 10 10 10 9 9 9 10 10 10 10 10 10 10 10 10 10 10 10 10 10 10 10 10 10 10 10 10 10 10 10 11 11 11 11 11 11 11 11 11
13 13 13 11 10 11 12 13 12 9 9 10 10 9 9 9 9 10 10 10 10 10 10 10 10 10 10 10 10 10 10 10 10 10 10 10 10 10 10 10 10 10 10 10 10 10 10 11 11
12 13 12 12 10 10 11 12 12 10 9 10 10 10 9 9 9 9 10 10 10 10 10 10 9 9 9 9 9 9 9 9 9 9 9 9 9 9 9 9 9 9 9 10 10 10 10 10 10
12 12 12 11 10 10 11 11 12 11 10 10 10 10 9 9 9 9 9 9 9 9 9 9 9 9 9 9 9 9 9 9 9 8 8 8 8 9 9 9 9 9 9 9 9 9 9 9 9
11 12 11 10 9 10 10 11 12 11 10 10 10 10 9 9 8 9 9 9 9 9 9 9 9 9 9 9 9 8 8 8 8 8 8 8 8 8 8 8 8 8 8 8 8 8 8 8 8
10 11 10 10 10 9 10 13 13 12 10 9 9 9 9 9 9 9 9 9 9 9 9 9 9 8 8 8 8 8 8 8 8 8 8 8 7 7 7 7 7 7 7 7 7 7 7 7 7
10 9 9 9 11 12 11 13 14 12 11 11 10 9 9 8 8 8 9 9 9 9 8 8 8 8 8 8 8 7 7 7 7 7 7 7 7 7 7 7 7 7 6 6 6 6 6 6 6
9 8 9 9 10 10 11 11 14 12 12 12 11 10 9 8 8 8 9 9 8 8 8 8 8 8 8 7 7 7 7 7 7 7 7 7 6 6 6 6 6 6 6 6 6 6 6 6 6
8 8 9 9 10 11 10 11 13 14 13 13 12 10 9 8 8 8 8 8 8 8 8 8 8 7 7 7 7 7 7 6 6 6 6 6 6 6 6 6 5 5 5 5 5 5 5 5 5
9 10 11 11 11 12 9 9 12 13 12 11 11 10 9 8 8 8 8 8 8 8 8 8 7 7 7 7 7 6 6 6 6 6 6 5 5 5 5 5 5 5 5 5 5 4 4 4 4
9 10 11 12 13 13 9 10 13 12 10 9 9 9 8 8 8 9 9 9 8 8 8 8 7 7 7 7 6 6 6 6 6 5 5 5 5 5 5 4 4 4 4 4 4 4 4 4 4
9 9 9 10 9 10 12 12 12 11 11 10 10 9 9 8 8 8 9 8 8 8 8 8 7 7 7 6 6 6 6 5 5 5 5 5 4 4 4 4 4 3 3 3 3 3 3 3 3
8 9 9 9 10 12 13 13 13 12 12 11 10 10 9 8 8 8 8 8 8 8 8 7 7 7 6 6 6 5 5 5 5 5 4 4 4 4 4 3 3 3 3 3 3 3 3 3 3
8 8 9 9 9 11 12 14 12 12 11 11 10 9 8 8 8 9 9 8 8 8 8 7 7 7 6 6 6 5 5 5 5 4 4 4 4 3 3 3 3 3 2 2 2 2 2 2 2
8 9 9 10 9 9 10 12 12 10 10 9 9 9 8 8 8 8 8 8 8 8 8 7 7 7 6 6 5 5 5 5 4 4 4 4 3 3 3 3 2 2 2 2 2 2 2 1 1
Wind_Speed
2 1 2 3 5 5 9 7 5 6 5 3 3 4 5 4 2 5 4 4 4 3 4 5 6 5 6 5 5 5 4 4 4 3 2 2 2 2 2 3 3 3 3 4 4 4 4 4 5
2 3 4 4 7 10 9 8 8 6 5 6 5 4 5 5 4 5 3 4 3 4 4 6 7 6 6 5 5 5 4 4 3 3 2 2 1 0 1 2 2 3 3 4 4 4 4 4 5
2 2 4 5 7 10 8 8 8 7 6 5 5 4 3 5 4 3 4 3 3 5 5 7 7 7 7 6 5 4 4 3 3 3 2 2 2 1 1 0 1 2 4 4 5 5 5 5 6
3 3 3 6 9 5 4 7 9 10 6 3 6 7 4 4 3 3 3 3 4 5 6 7 7 7 7 6 6 5 4 3 3 3 3 3 3 3 2 2 1 1 3 5 5 6 5 6 7
2 4 6 7 8 5 4 5 8 8 7 5 6 6 5 4 4 4 4 5 5 5 6 7 7 7 7 6 6 6 5 5 4 3 3 3 3 3 3 3 2 2 3 5 6 6 7 7 7
3 4 7 11 9 6 5 4 7 7 7 6 6 7 5 4 4 5 5 6 6 6 6 6 8 7 7 7 6 6 6 6 6 6 5 4 3 4 4 3 3 3 4 5 6 7 7 8 8
3 4 7 10 10 8 5 4 7 7 8 5 4 6 6 4 4 4 5 6 7 8 7 7 6 6 7 7 7 7 7 6 6 6 6 6 5 4 4 4 4 4 4 5 6 7 8 8 9
0 3 6 8 11 8 6 4 4 5 6 3 1 5 6 4 3 4 5 7 7 8 8 7 7 7 6 5 7 7 7 7 7 6 6 6 4 3 3 4 4 5 5 5 6 7 8 9 10
2 3 6 8 9 7 7 5 3 2 5 3 2 3 5 5 4 5 5 6 7 8 7 7 7 7 7 6 6 6 6 6 6 5 5 4 4 4 3 4 5 5 5 6 6 7 8 10 11
0 4 4 2 3 7 7 5 5 6 6 4 5 5 6 6 5 6 6 6 6 7 8 7 7 7 7 6 5 4 5 5 5 6 6 5 5 4 5 4 4 5 6 6 6 7 9 10 9
3 3 5 4 4 6 6 4 3 7 5 5 7 8 7 6 5 5 5 5 5 6 7 7 7 7 7 6 5 5 4 5 5 6 7 6 5 4 4 4 4 5 5 5 5 6 7 8 8
5 4 4 5 3 4 4 4 4 2 2 4 6 7 6 5 5 5 5 5 4 5 6 7 8 7 7 6 5 5 5 5 5 6 7 6 4 4 4 4 5 5 5 5 6 6 7 8 9
5 5 6 7 7 6 6 4 3 3 4 5 7 6 6 5 5 4 4 4 4 5 6 7 7 7 7 6 5 5 5 5 6 6 7 7 5 4 5 4 4 5 5 6 6 6 7 8 8
7 9 8 7 6 4 5 3 2 3 5 6 6 6 5 4 4 4 3 3 4 5 5 6 7 7 7 6 5 5 6 6 6 6 8 8 6 5 5 5 5 5 6 6 7 7 7 7 7
8 10 8 5 3 2 2 2 2 4 5 6 5 5 4 3 3 2 2 2 3 4 4 5 6 7 6 6 6 5 5 6 6 6 8 9 8 7 6 5 5 6 7 7 7 7 7 7 7
5 6 4 3 3 2 2 3 4 4 5 5 5 5 4 3 2 2 1 1 2 3 4 5 5 6 6 6 5 5 5 6 6 7 7 9 9 8 6 5 5 7 7 6 6 6 7 7 7
3 5 4 3 3 1 1 3 4 4 5 5 5 5 5 4 3 2 1 1 1 2 3 4 5 6 6 5 5 5 5 6 6 7 7 9 9 9 7 5 6 7 6 5 6 6 6 7 8
6 5 4 3 2 1 2 4 4 5 6 7 7 6 6 6 4 3 2 1 1 2 3 4 4 5 5 4 3 3 4 5 6 7 8 9 9 9 7 5 7 7 5 5 6 7 7 7 8
6 6 5 2 2 2 3 6 8 6 7 9 8 8 8 7 4 3 3 2 1 1 1 3 4 5 4 3 3 3 4 4 5 6 8 9 9 9 7 6 6 6 5 6 7 7 8 6 7
6 6 4 2 2 2 4 8 8 7 8 8 8 8 8 7 5 4 4 3 2 1 0 1 2 3 4 3 3 2 3 3 4 5 6 8 9 9 7 7 6 6 5 6 7 7 6 5 5
6 3 3 1 2 0 4 5 4 4 5 6 7 7 7 8 7 6 6 5 3 2 1 1 1 2 3 3 2 2 1 2 2 4 5 7 8 8 8 8 7 6 5 5 6 7 6 6 5
3 3 3 1 1 1 3 3 4 3 5 6 7 7 7 7 7 7 7 6 5 4 3 2 1 1 1 1 2 2 2 3 3 4 4 5 7 7 8 7 7 6 5 6 6 6 6 6 5
3 2 2 1 0 2 2 3 5 3 5 5 5 6 6 7 7 7 7 6 5 4 4 3 2 2 2 1 1 2 2 2 2 3 4 5 5 6 7 7 6 6 5 6 6 6 6 5 5
3 3 2 1 1 3 2 3 5 4 5 4 3 4 5 6 7 7 6 6 5 5 4 4 4 3 3 2 2 2 2 2 3 3 4 4 4 4 6 6 6 6 5 6 6 6 6 5 5
1 1 1 1 2 2 2 4 7 3 4 5 5 4 4 4 6 6 7 7 7 6 6 5 5 5 4 3 3 3 3 3 3 3 3 4 4 4 5 6 6 5 5 6 6 5 5 5 5
1 1 1 2 2 2 2 6 5 2 4 5 6 5 4 4 5 6 7 7 7 7 7 7 7 6 5 5 4 4 3 3 2 3 3 3 3 4 5 5 5 6 6 6 5 5 5 5 5
2 1 1 0 1 4 4 5 7 2 3 3 4 3 3 3 3 5 6 6 7 7 8 8 8 7 6 5 5 4 4 4 4 3 3 3 3 4 5 5 5 5 5 5 5 4 5 5 5
1 3 2 1 2 3 4 5 3 1 1 1 2 2 3 4 5 5 6 6 6 7 7 7 8 8 7 6 5 4 5 4 4 4 4 4 4 4 4 4 5 5 5 5 5 4 5 5 4
3 3 2 1 2 3 4 3 0 2 1 2 2 3 5 6 6 6 6 6 6 6 7 7 8 8 7 7 6 6 5 5 4 4 4 4 4 4 4 4 4 4 5 5 5 4 5 5 5
3 4 4 3 3 3 4 5 2 2 2 3 4 6 7 8 7 7 7 6 6 7 7 7 8 8 8 7 7 7 6 5 5 5 4 4 4 4 4 4 5 4 4 4 4 5 5 5 5
Wind_Direction
263 222 200 194 194 207 214 192 177 160 159 143 128 144 139 122 124 109 85 37 29 63 72 84 65 72 75 71 70 69 74 75 73 71 81 97 111 149 181 187 182 181 182 179 176 169 162 157 150
218 192 188 198 211 206 202 188 176 160 138 130 118 123 118 102 69 83 72 19 34 73 78 72 61 63 70 67 68 63 61 61 59 59 58 50 27 142 173 193 203 198 193 189 188 186 181 175 169
182 204 188 188 211 214 188 168 160 134 131 145 128 101 103 105 89 72 34 17 77 80 76 68 56 56 59 57 59 59 54 49 43 40 40 29 10 352 298 225 231 217 207 201 199 195 193 190 188
186 176 189 205 198 202 165 144 148 144 139 121 137 119 102 62 49 44 41 70 90 74 66 69 55 53 53 52 50 47 42 33 29 30 27 16 360 352 338 321 309 253 224 216 211 206 205 201 199
200 187 184 192 194 174 154 141 162 158 146 137 143 127 115 82 63 62 71 80 82 70 60 64 54 53 52 49 45 41 35 31 25 16 12 5 357 348 336 325 311 268 248 230 223 218 217 212 210
178 196 195 190 177 162 156 160 165 153 140 138 142 129 119 98 73 65 74 79 73 65 56 58 54 51 49 48 44 39 33 32 27 21 12 1 352 349 342 325 306 283 260 249 235 228 225 219 216
199 189 191 180 170 171 161 154 169 158 146 136 139 133 133 125 75 80 82 76 66 58 52 49 46 46 46 45 42 38 34 31 25 20 16 8 360 350 340 332 315 293 278 263 253 238 230 226 222
255 155 165 174 170 170 154 140 128 152 131 113 159 149 148 134 109 106 91 75 64 53 46 40 37 35 32 35 39 34 36 34 26 21 14 2 351 343 337 322 327 310 290 277 264 252 236 231 228
247 188 178 175 173 157 154 151 124 109 127 117 84 80 112 122 133 116 91 70 55 46 39 33 30 28 25 25 27 29 35 35 26 24 17 351 335 332 323 343 341 326 305 285 272 262 250 238 229
280 181 169 147 146 147 146 141 141 151 145 142 127 110 120 131 126 107 86 66 49 37 30 26 24 22 21 20 18 17 22 22 15 8 360 345 341 339 334 338 336 325 314 290 275 264 252 245 240
64 107 130 109 102 128 127 120 140 158 162 167 156 146 141 132 119 104 84 66 48 35 30 25 20 20 19 14 14 13 11 9 5 4 357 347 344 339 336 328 322 315 308 299 290 270 264 261 254
97 77 107 114 110 114 120 123 115 138 118 117 137 143 143 135 115 98 81 64 49 40 31 25 21 21 19 16 16 15 12 8 3 359 356 352 347 339 336 328 326 321 315 308 298 288 280 272 266
102 105 90 94 92 96 106 108 108 114 114 121 125 133 136 134 122 101 84 67 51 40 29 23 20 21 18 17 15 15 13 8 4 3 359 355 348 337 331 326 326 322 321 311 301 292 289 280 274
113 110 100 88 92 89 103 100 120 142 137 135 139 145 141 143 133 120 102 74 51 38 27 20 22 20 19 20 18 15 12 9 6 8 4 358 352 342 332 327 327 324 321 314 303 297 291 285 277
123 110 94 62 69 80 104 131 172 146 150 152 156 159 153 156 150 133 109 74 49 37 28 21 20 19 19 20 18 17 14 11 13 9 6 3 357 347 339 330 327 327 321 314 307 302 295 288 282
123 130 123 66 36 8 231 194 154 156 166 177 179 180 182 185 178 156 124 84 51 36 29 23 19 17 16 15 14 17 17 15 13 9 6 4 1 353 345 338 333 330 323 319 312 306 298 291 287
135 143 133 115 42 13 238 217 166 176 197 213 209 203 204 203 202 196 169 125 65 36 29 25 21 16 12 10 14 22 21 19 14 11 8 2 360 357 351 343 338 334 329 324 317 309 303 296 293
150 144 136 137 37 4 237 246 235 219 227 236 231 221 218 218 214 200 181 159 97 47 32 25 21 15 8 7 10 20 25 20 18 15 9 4 2 358 352 346 343 341 333 329 324 315 307 301 302
128 131 120 93 29 324 259 267 266 244 234 236 233 227 223 222 212 194 186 173 154 85 37 27 18 14 11 6 359 0 7 7 11 12 9 5 2 0 359 352 347 345 336 331 327 319 312 312 316
109 116 105 86 29 328 301 284 272 245 235 237 235 229 226 220 206 198 196 193 198 203 350 18 16 13 14 9 356 347 339 348 359 3 7 5 3 2 1 358 351 349 340 340 338 333 319 314 323
73 98 104 75 350 145 313 276 231 210 223 234 238 235 229 222 216 205 203 208 211 221 241 300 347 360 9 4 1 353 343 329 346 355 357 1 2 3 2 358 353 350 346 341 339 336 328 317 315
95 89 113 103 309 301 340 287 245 214 235 229 229 227 226 219 218 213 209 212 215 223 224 233 261 306 338 346 349 347 334 331 334 336 342 350 359 2 1 357 354 350 346 342 337 337 326 319 314
100 116 113 96 61 277 221 253 261 209 233 220 217 222 224 219 218 218 217 218 220 219 217 223 233 251 265 277 293 301 307 319 324 331 338 346 355 360 0 356 352 347 343 340 337 334 330 322 314
124 139 125 139 233 254 214 243 262 214 219 210 206 221 227 222 222 226 224 223 225 220 219 223 228 238 243 245 255 267 285 302 314 327 333 337 340 345 354 350 348 344 340 336 332 329 327 324 319
152 237 242 227 234 246 140 247 256 252 239 242 252 256 246 228 225 226 224 224 225 224 224 225 228 234 235 236 240 247 256 267 284 304 315 320 325 332 339 341 341 340 336 332 329 327 326 324 320
100 321 319 291 291 301 210 247 261 291 270 259 255 257 256 239 230 231 234 234 234 232 230 228 229 234 231 231 234 241 245 252 265 279 290 300 307 315 324 329 332 333 332 330 328 323 324 319 314
146 121 15 326 293 276 257 268 285 228 235 227 227 232 246 261 254 248 244 241 240 238 235 231 231 233 230 229 231 236 237 242 254 266 276 286 295 306 316 321 324 326 328 328 326 322 323 320 320
1 143 167 201 282 288 283 267 262 227 191 184 217 261 295 298 285 273 261 253 248 244 240 235 232 232 230 225 225 230 232 236 245 255 265 278 290 299 305 313 316 320 323 325 322 317 319 320 320
165 177 194 196 271 278 294 286 140 246 277 288 300 310 309 302 293 282 273 264 257 250 242 235 230 229 227 224 223 224 226 229 236 244 256 269 280 288 294 300 304 310 317 322 320 318 318 315 317
239 224 203 235 233 239 275 280 64 250 283 296 307 312 310 305 296 287 277 265 256 250 245 238 232 227 225 223 223 225 226 224 230 240 250 259 269 277 283 289 292 298 304 310 313 312 313 314 317
Height
1513 1515 1518 1521 1521 1516 1514 1516 1518 1522 1523 1527 1527 1527 1525 1528 1530 1539 1541 1538 1539 1540 1541 1541 1541 1542 1542 1543 1543 1543 1543 1543 1543 1543 1543 1543 1543 1542 1542 1542 1541 1541 1541 1540 1540 1540 1539 1539 1539
1513 1516 1520 1520 1514 1512 1514 1515 1519 1521 1525 1528 1529 1529 1530 1533 1536 1538 1538 1538 1539 1540 1541 1541 1541 1542 1542 1542 1542 1543 1543 1543 1543 1542 1542 1542 1542 1542 1541 1541 1541 1541 1540 1540 1540 1540 1539 1539 1539
1513 1515 1519 1515 1511 1506 1510 1516 1519 1524 1527 1528 1529 1531 1532 1535 1537 1538 1538 1538 1539 1540 1540 1541 1541 1541 1541 1542 1542 1542 1542 1542 1542 1541 1541 1541 1541 1541 1541 1540 1540 1540 1539 1539 1539 1539 1539 1539 1538
1513 1517 1517 1513 1511 1513 1513 1518 1522 1524 1527 1529 1529 1532 1534 1536 1537 1537 1537 1538 1540 1540 1540 1540 1540 1541 1541 1541 1541 1541 1541 1541 1540 1540 1540 1540 1540 1540 1539 1539 1539 1538 1538 1538 1538 1538 1538 1538 1538
1513 1514 1512 1512 1513 1516 1519 1522 1523 1523 1525 1528 1530 1531 1535 1536 1536 1536 1537 1538 1539 1540 1540 1540 1540 1540 1540 1540 1540 1539 1539 1539 1539 1539 1539 1538 1538 1538 1538 1538 1537 1537 1537 1537 1537 1536 1536 1536 1536
1513 1511 1507 1508 1514 1518 1521 1523 1524 1524 1526 1529 1530 1531 1535 1536 1536 1537 1537 1538 1539 1539 1539 1539 1539 1539 1539 1539 1538 1538 1538 1538 1537 1537 1537 1537 1536 1536 1536 1536 1535 1535 1535 1535 1535 1535 1535 1535 1535
1512 1508 1505 1506 1513 1518 1522 1524 1524 1524 1526 1529 1531 1532 1535 1536 1536 1537 1537 1538 1539 1539 1539 1539 1539 1538 1538 1538 1537 1537 1536 1536 1536 1535 1535 1535 1534 1534 1534 1533 1533 1533 1533 1533 1533 1533 1533 1533 1533
1511 1510 1509 1509 1512 1517 1523 1525 1526 1526 1528 1530 1531 1532 1534 1536 1536 1536 1537 1538 1538 1538 1538 1538 1538 1537 1537 1537 1536 1535 1535 1535 1534 1534 1533 1533 1532 1532 1531 1531 1531 1530 1530 1530 1530 1530 1530 1530 1530
1511 1511 1509 1511 1512 1517 1522 1524 1527 1528 1529 1530 1531 1532 1534 1534 1536 1537 1538 1538 1538 1538 1538 1537 1537 1536 1536 1535 1535 1534 1533 1533 1532 1532 1531 1531 1530 1530 1529 1528 1528 1528 1527 1527 1527 1527 1527 1527 1528
1512 1509 1512 1516 1516 1518 1522 1524 1526 1528 1529 1530 1532 1532 1533 1534 1535 1537 1537 1537 1537 1537 1537 1536 1536 1535 1534 1534 1533 1533 1532 1531 1530 1530 1529 1529 1528 1527 1526 1526 1525 1525 1524 1524 1524 1524 1524 1524 1524
1513 1513 1517 1519 1520 1521 1523 1525 1526 1526 1528 1530 1531 1532 1533 1534 1535 1536 1536 1536 1536 1536 1536 1535 1535 1534 1533 1533 1532 1531 1530 1529 1529 1528 1527 1526 1526 1525 1524 1523 1523 1522 1521 1521 1521 1521 1521 1521 1521
1516 1519 1519 1521 1523 1524 1525 1526 1528 1528 1529 1530 1531 1532 1533 1534 1534 1535 1536 1536 1536 1536 1535 1535 1534 1533 1532 1532 1531 1530 1529 1528 1527 1526 1525 1524 1524 1523 1522 1521 1520 1519 1519 1518 1518 1517 1517 1517 1517
1517 1521 1522 1523 1524 1526 1527 1528 1528 1530 1530 1530 1531 1532 1533 1534 1534 1534 1535 1535 1535 1535 1535 1534 1533 1532 1531 1530 1529 1528 1527 1526 1525 1524 1523 1522 1522 1521 1520 1519 1518 1517 1516 1515 1514 1514 1514 1513 1513
1520 1521 1523 1525 1526 1528 1528 1529 1529 1530 1530 1531 1531 1532 1533 1534 1533 1534 1534 1535 1535 1534 1534 1533 1532 1531 1530 1529 1528 1527 1526 1524 1523 1522 1521 1520 1519 1518 1517 1516 1515 1514 1513 1512 1512 1511 1510 1509 1509
1521 1521 1524 1527 1528 1529 1529 1528 1530 1530 1531 1531 1531 1532 1532 1533 1533 1533 1534 1534 1534 1534 1533 1532 1531 1530 1529 1528 1527 1526 1524 1523 1522 1521 1520 1518 1517 1516 1515 1514 1512 1511 1510 1509 1509 1508 1507 1506 1505
1521 1520 1522 1529 1529 1529 1530 1525 1530 1530 1531 1531 1531 1532 1532 1532 1532 1532 1533 1533 1533 1533 1532 1532 1531 1529 1528 1527 1526 1525 1523 1522 1520 1519 1518 1516 1515 1514 1512 1511 1510 1509 1508 1506 1505 1504 1503 1502 1501
1519 1519 1521 1528 1530 1529 1528 1525 1529 1530 1530 1530 1530 1531 1531 1531 1531 1531 1532 1532 1532 1532 1531 1530 1529 1528 1527 1526 1525 1523 1522 1521 1519 1518 1516 1514 1513 1511 1510 1508 1507 1506 1504 1503 1502 1501 1500 1498 1497
1519 1519 1523 1525 1530 1530 1528 1526 1527 1529 1529 1528 1529 1529 1530 1530 1530 1530 1531 1531 1531 1531 1530 1530 1529 1527 1526 1525 1524 1523 1521 1520 1518 1516 1514 1513 1511 1509 1508 1506 1504 1503 1501 1500 1499 1497 1496 1495 1493
1520 1520 1523 1528 1532 1531 1527 1526 1524 1526 1526 1526 1526 1526 1527 1528 1529 1529 1529 1529 1530 1530 1529 1529 1528 1527 1525 1524 1523 1521 1520 1518 1517 1515 1513 1511 1509 1507 1505 1504 1502 1500 1499 1497 1496 1494 1493 1491 1490
1523 1523 1526 1530 1533 1531 1527 1523 1520 1521 1522 1522 1523 1523 1524 1526 1526 1527 1527 1528 1528 1528 1528 1527 1526 1525 1524 1523 1522 1520 1519 1517 1515 1514 1512 1510 1507 1505 1504 1502 1500 1498 1496 1494 1493 1491 1490 1488 1487
1528 1527 1529 1531 1532 1532 1529 1517 1515 1518 1520 1521 1521 1521 1522 1523 1524 1525 1525 1526 1527 1527 1527 1526 1525 1524 1523 1522 1520 1519 1517 1515 1514 1512 1510 1508 1506 1504 1502 1500 1498 1496 1494 1492 1490 1489 1487 1486 1485
1530 1535 1534 1533 1528 1525 1529 1519 1510 1513 1516 1517 1518 1519 1519 1520 1521 1522 1523 1524 1524 1525 1525 1524 1523 1522 1521 1520 1518 1517 1515 1514 1512 1510 1508 1506 1504 1502 1500 1498 1496 1494 1492 1490 1488 1486 1485 1483 1482
1534 1537 1536 1534 1531 1529 1528 1526 1509 1513 1511 1512 1514 1516 1517 1518 1519 1520 1521 1522 1523 1523 1522 1522 1521 1520 1519 1518 1516 1515 1513 1512 1510 1508 1506 1504 1502 1500 1498 1496 1494 1492 1490 1488 1486 1484 1482 1481 1479
1538 1537 1536 1534 1530 1528 1527 1526 1511 1506 1507 1509 1512 1514 1515 1516 1517 1517 1518 1519 1520 1520 1519 1519 1518 1517 1516 1515 1514 1512 1511 1509 1507 1506 1504 1502 1500 1498 1496 1493 1491 1489 1487 1485 1483 1481 1480 1478 1476
1537 1533 1529 1527 1525 1520 1531 1528 1512 1505 1508 1510 1511 1512 1513 1514 1514 1515 1516 1516 1517 1517 1516 1516 1515 1515 1514 1512 1511 1510 1508 1507 1505 1503 1501 1499 1497 1495 1493 1491 1489 1487 1485 1483 1481 1479 1477 1475 1474
1536 1534 1530 1525 1519 1516 1529 1521 1505 1507 1509 1510 1511 1511 1512 1512 1512 1513 1513 1514 1514 1514 1513 1513 1512 1511 1510 1509 1508 1507 1505 1504 1502 1500 1499 1497 1495 1493 1490 1488 1486 1484 1482 1480 1478 1476 1474 1473 1471
1536 1536 1538 1534 1534 1529 1513 1511 1505 1506 1507 1508 1509 1510 1510 1511 1511 1511 1511 1511 1511 1510 1510 1509 1508 1508 1507 1506 1505 1503 1502 1500 1499 1497 1496 1494 1492 1490 1488 1486 1483 1481 1479 1477 1475 1473 1472 1470 1468
1540 1538 1537 1535 1530 1518 1509 1507 1502 1501 1503 1506 1508 1509 1509 1509 1509 1508 1508 1507 1507 1507 1506 1505 1504 1504 1503 1502 1501 1500 1499 1497 1496 1494 1492 1491 1489 1487 1485 1483 1481 1479 1477 1475 1473 1471 1469 1467 1465
1540 1539 1536 1535 1533 1525 1512 1502 1501 1503 1504 1506 1507 1508 1508 1507 1506 1505 1504 1504 1503 1503 1502 1501 1500 1499 1499 1498 1497 1496 1495 1494 1492 1491 1489 1488 1486 1484 1482 1480 1478 1476 1474 1472 1470 1468 1466 1465 1463
1537 1535 1534 1531 1532 1531 1523 1509 1503 1505 1506 1507 1507 1507 1506 1505 1503 1502 1501 1500 1499 1498 1497 1496 1495 1495 1494 1494 1493 1492 1491 1490 1489 1488 1486 1484 1483 1481 1479 1477 1475 1473 1472 1470 1468 1466 1464 1462 1460